Date,TemperatureHighF,TemperatureAvgF,TemperatureLowF,DewpointHighF,DewpointAvgF,DewpointLowF,HumidityHigh,HumidityAvg,HumidityLow,PressureMaxIn,PressureMinIn,WindSpeedMaxMPH,WindSpeedAvgMPH,GustSpeedMaxMPH,PrecipitationSumIn
2013-1-11,61.0,57.3,49.0,50.0,46.3,43.0,100,67,61,28.94,28.82,17,11,20,0.00
2013-1-12,59.0,33.4,23.0,46.0,29.1,21.0,100,85,61,29.29,28.94,11,6,13,0.00
2013-1-13,26.0,18.5,11.0,24.0,17.8,11.0,100,97,91,29.56,29.26,10,4,11,0.00
2013-1-14,23.0,12.7,8.0,22.0,12.5,8.0,100,99,97,29.74,29.56,8,1,8,0.00
2013-1-19,62.0,50.6,41.0,48.0,42.4,37.0,85,74,61,29.50,29.26,11,4,15,0.00
2013-1-20,41.0,29.5,22.0,37.0,26.6,21.0,97,88,79,29.65,29.50,10,3,12,0.00
2013-1-21,26.0,18.7,12.0,24.0,18.0,12.0,100,97,91,29.71,29.65,10,3,11,0.00
2013-1-22,31.0,20.2,12.0,27.0,19.0,12.0,100,95,85,29.71,29.56,9,3,9,0.00
2013-1-23,47.0,21.7,11.0,41.0,20.4,11.0,100,95,79,29.59,29.50,6,1,9,0.00
2013-4-14,76.0,69.0,58.0,61.0,53.0,46.0,100,59,43,30.74,30.53,28,10,28,0.16
2013-4-15,60.0,50.3,44.0,50.0,44.2,40.0,100,80,61,31.01,30.71,12,4,13,0.28
2013-4-16,47.0,44.4,40.0,41.0,39.5,37.0,100,83,79,31.01,31.01,16,8,18,0.04
2013-4-17,76.0,53.6,46.0,64.0,51.8,40.0,100,94,55,31.01,30.65,11,5,13,0.64
2013-4-18,51.0,43.2,38.0,51.0,41.6,35.0,100,94,85,30.95,30.53,15,6,19,1.04
2013-4-19,55.0,42.5,33.0,45.0,36.9,28.0,97,80,67,31.01,30.92,14,6,18,0.00
2013-4-20,59.0,46.4,29.0,46.0,38.8,25.0,91,75,61,31.01,31.01,9,4,11,0.00
2013-4-21,68.0,57.0,45.0,49.0,44.4,39.0,79,64,49,31.01,31.01,19,7,23,0.00
2013-4-22,71.0,58.9,48.0,51.0,45.6,40.0,73,62,49,31.01,30.95,13,5,15,0.00
2013-4-23,56.0,39.4,35.0,51.0,38.3,35.0,100,97,67,31.01,31.01,15,7,20,0.44
2013-4-24,55.0,42.6,30.0,46.0,38.3,30.0,100,85,67,31.01,31.01,15,3,15,0.00
2013-4-25,69.0,51.5,34.0,49.0,41.4,33.0,97,71,49,31.01,31.01,11,3,13,0.00
2013-4-28,71.0,65.5,59.0,51.0,48.3,45.0,61,54,49,30.95,30.86,10,6,12,0.00
2013-4-29,82.0,68.9,55.0,61.0,51.7,44.0,67,55,43,30.89,30.74,16,9,18,0.00
2013-4-30,82.0,72.4,63.0,61.0,52.9,47.0,55,51,43,30.92,30.74,20,9,22,0.00
2013-5-1,87.0,70.7,52.0,62.0,52.7,42.0,73,54,43,31.01,30.92,13,6,15,0.00
2013-5-2,50.0,41.3,33.0,42.0,38.0,33.0,100,88,73,31.01,31.01,13,6,19,0.12
2013-5-3,35.0,33.3,33.0,35.0,33.3,33.0,100,100,100,31.01,31.01,7,1,9,0.00
2013-5-4,50.0,46.1,41.0,43.0,40.4,38.0,100,80,73,31.01,30.98,8,2,8,0.00
2013-5-5,69.0,53.1,44.0,53.0,46.9,39.0,100,82,49,31.01,31.01,9,2,11,0.00
2013-5-6,77.0,59.6,50.0,54.0,50.0,44.0,100,75,37,31.01,31.01,8,2,11,0.00
2013-5-7,88.0,67.0,50.0,66.0,53.8,45.0,100,67,37,31.01,31.01,5,0,8,0.00
2013-5-8,73.0,64.4,57.0,62.0,48.5,44.0,100,58,43,31.01,30.98,13,4,17,0.04
2013-5-9,84.0,65.7,59.0,65.0,59.4,48.0,100,84,43,31.01,30.92,10,2,11,0.36
2013-5-10,68.0,57.9,53.0,60.0,50.7,-99.9,100,84,49,31.01,30.98,9,2,10,0.00
2013-5-11,72.0,58.4,47.0,61.0,47.2,-99.9,100,72,43,31.01,31.01,17,3,17,0.00
2013-5-12,74.0,55.8,36.0,51.0,43.6,34.0,91,66,43,31.01,31.01,8,1,9,0.00
2013-5-13,78.0,63.6,46.0,61.0,48.2,40.0,97,59,37,31.01,31.01,14,5,14,0.00
2013-5-14,91.0,75.8,61.0,63.0,54.2,47.0,61,48,37,31.01,30.95,22,9,22,0.00
2013-5-15,86.0,74.7,65.0,61.0,54.6,46.0,67,50,43,31.01,30.95,15,9,17,0.00
2013-5-16,84.0,65.4,61.0,72.0,34.2,-99.9,100,69,43,31.01,30.92,12,4,15,0.00
2013-5-17,65.0,61.1,57.0,65.0,61.1,57.0,100,100,100,31.01,30.95,6,2,6,0.00
2013-5-18,79.0,76.0,75.0,61.0,58.7,58.0,55,55,49,30.95,30.89,13,5,16,0.00
2013-5-19,86.0,72.8,60.0,73.0,59.9,46.0,100,67,43,30.98,30.74,17,7,28,1.12
2013-5-20,77.0,65.5,59.0,70.0,61.0,56.0,100,88,55,30.92,30.77,18,8,19,2.50
2013-5-21,71.0,65.2,58.0,64.0,54.7,47.0,100,73,49,30.92,30.80,13,4,14,0.00
2013-5-24,62.0,60.3,60.0,48.0,47.1,47.0,61,61,61,31.01,31.01,8,2,8,0.00
2013-5-25,81.0,69.2,58.0,61.0,52.8,45.0,67,56,43,31.01,31.01,15,7,17,0.20
2013-5-28,73.0,71.0,70.0,72.0,69.2,64.0,100,94,73,31.01,30.95,6,2,6,0.04
2013-5-29,83.0,75.5,66.0,71.0,61.0,56.0,100,63,43,31.01,30.92,22,10,23,0.00
2013-5-30,73.0,64.8,62.0,70.0,63.0,56.0,100,95,61,31.01,30.89,18,10,26,1.00
2013-5-31,65.0,62.5,59.0,65.0,62.5,59.0,100,100,100,31.01,30.98,12,4,12,1.56
2013-6-13,89.0,79.2,62.0,62.0,59.1,48.0,67,51,37,17.72,17.72,8,1,11,0.00
2013-6-14,79.0,68.1,64.0,71.0,64.6,58.0,100,91,49,0.00,40.00,9,1,9,0.00
2013-6-15,83.0,70.6,67.0,78.0,67.7,57.0,100,92,43,17.72,17.72,11,6,13,0.72
2013-6-16,89.0,71.4,66.0,76.0,69.9,58.0,100,96,37,17.72,17.72,8,2,10,0.00
2013-6-17,76.0,69.2,65.0,75.0,68.7,59.0,100,99,55,17.72,17.72,13,2,17,1.00
2013-6-18,89.0,71.7,63.0,71.0,63.5,58.0,100,81,37,17.72,17.72,9,1,9,0.00
2013-6-19,88.0,74.8,63.0,70.0,62.6,59.0,100,71,43,17.72,17.72,10,2,13,0.00
2013-6-20,81.0,71.4,68.0,73.0,67.1,59.0,100,88,49,0.00,40.00,8,4,10,0.00
2013-6-23,78.0,75.5,74.0,75.0,68.4,65.0,100,79,67,17.72,17.72,11,6,13,0.00
2013-6-24,75.0,74.7,74.0,75.0,71.0,66.0,100,89,73,17.72,17.72,10,7,11,0.00
2013-7-1,85.0,71.7,60.0,61.0,53.2,46.0,79,54,43,17.72,17.72,9,2,11,0.00
2013-7-2,85.0,69.3,58.0,61.0,52.6,46.0,79,57,43,17.72,17.72,6,1,8,0.00
2013-7-3,90.0,72.6,61.0,61.0,55.3,47.0,73,57,37,17.72,17.72,11,3,15,0.00
2013-7-4,88.0,73.5,56.0,62.0,57.8,48.0,100,62,37,17.72,17.72,10,3,11,0.00
2013-7-5,92.0,79.0,63.0,63.0,58.5,53.0,73,51,31,17.72,17.72,11,6,13,0.00
2013-7-6,91.0,77.3,67.0,66.0,59.8,56.0,97,57,37,17.72,17.72,14,7,15,0.00
2013-7-7,90.0,80.1,69.0,68.0,60.2,57.0,97,52,37,17.72,17.72,15,7,18,0.00
2013-7-28,69.0,68.2,68.0,49.0,48.2,48.0,49,49,49,29.15,29.12,3,1,4,0.00
2013-7-29,69.0,64.3,62.0,69.0,60.7,49.0,100,89,55,29.18,29.15,5,0,6,0.16
2013-8-1,88.0,83.5,77.0,62.0,60.3,58.0,55,46,37,29.12,29.09,6,2,8,0.00
2013-8-2,84.0,73.5,70.0,78.0,71.9,63.0,100,96,61,29.06,28.97,11,3,16,0.20
2013-8-3,75.0,72.7,70.0,75.0,72.7,70.0,100,100,100,29.18,29.00,5,1,10,0.00
2013-8-4,73.0,70.5,67.0,73.0,69.1,56.0,100,96,61,29.23,29.15,6,0,6,0.52
2013-8-5,84.0,74.0,70.0,79.0,72.8,66.0,100,97,55,29.15,28.94,10,2,10,0.00
2013-8-6,83.0,75.6,70.0,80.0,73.8,66.0,100,95,61,29.00,28.91,13,3,17,0.28
2013-8-7,85.0,75.5,70.0,80.0,74.0,66.0,100,96,55,29.03,28.88,12,2,23,0.28
2013-8-8,79.0,71.6,67.0,75.0,69.6,60.0,100,95,55,29.09,29.00,6,1,8,0.00
2013-8-9,76.0,70.7,66.0,76.0,70.7,66.0,100,100,100,29.18,29.06,6,0,6,0.00
2013-8-10,87.0,76.9,67.0,67.0,59.9,56.0,100,58,43,29.23,29.18,6,1,8,0.00
2013-8-11,90.0,70.4,59.0,71.0,63.1,59.0,100,82,37,29.21,29.15,9,1,10,0.00
2013-8-21,91.0,75.5,66.0,74.0,66.4,61.0,100,79,37,29.18,29.12,10,5,11,0.00
2013-8-22,91.0,74.0,69.0,75.0,70.0,61.0,100,90,37,29.18,29.12,6,3,6,0.00
2013-8-23,89.0,74.8,68.0,75.0,68.3,59.0,100,85,37,29.18,29.12,9,1,9,0.00
2013-8-24,82.0,74.0,72.0,75.0,70.0,59.0,100,90,49,29.21,29.15,6,2,6,0.00
2013-8-25,87.0,71.8,68.0,72.0,67.5,59.0,100,89,43,29.29,29.21,8,4,9,0.00
2013-8-26,76.0,72.9,71.0,74.0,70.6,63.0,100,94,67,29.23,29.21,6,5,8,0.00
2013-8-27,90.0,73.5,69.0,74.0,69.5,60.0,100,90,37,29.15,29.12,6,5,14,0.00
2013-9-4,88.0,71.3,57.0,63.0,57.9,52.0,100,68,37,29.23,29.12,4,0,6,0.00
2013-9-5,87.0,76.1,59.0,65.0,59.2,53.0,100,59,43,29.26,29.18,8,2,10,0.00
2013-9-6,91.0,76.8,61.0,67.0,60.2,56.0,100,60,37,29.21,29.06,10,3,11,0.00
2013-9-7,94.0,72.4,66.0,68.0,55.6,-99.9,100,63,31,29.09,28.97,12,6,13,0.00
2013-9-8,97.0,81.0,73.0,62.0,60.3,59.0,61,50,31,29.00,28.94,9,6,13,0.00
2013-9-9,96.0,87.8,73.0,63.0,59.7,58.0,61,40,31,29.03,28.97,15,8,19,0.00
2013-9-10,95.0,81.9,69.0,69.0,60.6,57.0,97,53,31,29.15,29.03,15,7,19,0.00
2013-9-13,70.0,63.0,60.0,50.0,47.5,47.0,61,57,49,29.15,29.12,0,0,0,2.64
2013-9-14,76.0,60.1,48.0,51.0,42.6,-99.9,85,57,37,29.18,29.03,9,2,11,0.00
2013-9-15,84.0,68.1,62.0,68.0,53.6,47.0,100,63,43,29.18,29.03,9,5,12,0.04
2013-9-16,65.0,61.4,60.0,65.0,61.4,60.0,100,100,100,29.32,29.21,6,2,9,0.08
2013-9-17,70.0,64.8,61.0,70.0,64.8,61.0,100,100,100,29.26,29.06,9,3,13,0.92
2013-9-18,75.0,68.9,67.0,75.0,68.6,67.0,100,99,85,29.09,28.97,11,7,11,0.00
2013-9-19,91.0,81.1,72.0,75.0,65.3,58.0,100,65,37,29.00,28.85,18,10,22,0.00
2013-9-21,72.0,62.2,57.0,52.0,42.2,-99.9,67,53,49,29.12,29.00,4,1,6,0.00
2013-9-22,75.0,62.3,52.0,56.0,49.7,43.0,100,67,43,29.06,28.97,10,2,11,0.20
2013-9-23,76.0,64.0,52.0,59.0,51.4,47.0,100,69,37,29.03,28.91,11,3,13,0.12
2013-9-24,76.0,65.3,58.0,66.0,55.3,47.0,100,74,43,28.94,28.88,13,4,15,0.00
2013-9-25,73.0,63.8,57.0,69.0,60.9,56.0,100,92,55,28.97,28.91,5,1,8,0.00
2013-9-26,85.0,70.4,59.0,68.0,59.7,56.0,100,73,43,29.00,28.94,12,4,15,0.04
2013-9-27,87.0,73.6,65.0,68.0,61.7,56.0,100,70,43,29.06,28.97,13,7,15,0.04
2013-9-28,72.0,69.4,66.0,69.0,62.0,56.0,100,79,61,29.00,28.91,15,10,17,0.40
2013-9-30,75.0,64.5,48.0,69.0,61.0,48.0,100,91,55,29.00,28.94,11,5,11,0.00
2013-10-1,80.0,71.7,67.0,67.0,59.5,56.0,100,67,49,29.09,29.06,2,0,2,0.00
2013-10-2,81.0,69.7,62.0,76.0,67.6,60.0,100,94,49,29.09,29.00,11,3,11,0.00
2013-10-3,81.0,72.2,68.0,77.0,68.6,61.0,100,90,55,29.00,28.91,12,8,12,0.00
2013-10-4,87.0,76.6,69.0,76.0,65.9,59.0,100,74,43,29.00,28.88,19,9,19,0.00
2013-10-5,74.0,56.1,47.0,69.0,49.5,41.0,100,80,61,29.09,29.00,8,2,8,0.16
2013-10-6,61.0,51.1,41.0,47.0,43.9,39.0,100,78,61,29.06,28.91,8,3,8,0.04
2013-10-7,69.0,53.4,41.0,49.0,45.3,41.0,100,78,49,29.18,29.03,5,1,5,0.00
2013-10-8,75.0,60.5,48.0,53.0,49.2,45.0,100,71,43,29.18,29.12,15,6,15,0.00
2013-10-9,75.0,59.6,49.0,58.0,50.6,46.0,100,76,43,29.18,29.12,11,4,11,0.00
2013-10-10,79.0,63.6,51.0,61.0,52.8,47.0,100,72,37,29.15,29.00,11,5,11,0.00
2013-10-11,77.0,68.1,58.0,68.0,59.6,52.0,100,77,55,29.00,28.88,18,10,18,0.00
2013-10-12,73.0,59.0,51.0,68.0,48.9,-99.9,100,75,43,29.29,28.94,8,2,8,0.12
2013-10-13,66.0,50.9,44.0,49.0,42.6,39.0,85,73,55,29.44,29.29,5,0,5,0.00
2013-10-14,68.0,57.5,50.0,62.0,48.4,42.0,100,73,49,29.38,29.00,15,5,15,0.00
2013-10-15,64.0,56.1,43.0,62.0,50.9,39.0,100,84,55,29.15,28.94,13,4,13,0.20
2013-10-16,59.0,47.8,38.0,49.0,43.3,38.0,100,86,61,29.15,29.03,5,0,5,0.04
2013-10-17,66.0,53.2,42.0,51.0,46.7,42.0,100,81,55,29.09,28.97,11,3,11,0.04
2013-10-18,55.0,42.3,38.0,45.0,40.6,38.0,100,94,67,29.21,29.06,8,1,8,0.16
2013-10-19,59.0,44.0,35.0,46.0,38.2,-99.9,100,85,61,29.15,29.00,15,5,15,0.08
2013-10-20,50.0,49.2,49.0,42.0,41.2,41.0,73,73,73,29.00,29.00,11,11,11,0.00
2013-10-23,50.0,43.7,30.0,42.0,39.0,30.0,100,84,73,29.23,29.12,6,1,6,0.00
2013-10-24,44.0,38.2,33.0,40.0,35.4,29.0,100,90,79,29.47,29.21,8,1,8,0.00
2013-10-25,46.0,35.2,27.0,40.0,33.3,27.0,100,93,79,29.53,29.50,9,6,9,0.00
2013-10-26,61.0,44.1,41.0,47.0,36.6,-99.9,85,79,61,29.23,29.15,9,5,9,0.00
2013-10-27,44.0,33.9,29.0,40.0,32.0,28.0,100,93,79,29.23,29.18,6,0,6,0.00
2013-10-28,62.0,47.7,37.0,54.0,42.8,-99.9,100,87,61,29.21,29.06,8,3,8,0.00
2013-10-29,64.0,57.2,50.0,64.0,57.2,50.0,100,100,100,29.21,29.00,9,3,9,0.84
2013-10-30,69.0,65.5,63.0,69.0,65.5,63.0,100,100,100,29.06,28.85,20,9,21,0.64
2013-10-31,63.0,62.3,62.0,63.0,62.3,62.0,100,100,100,28.85,28.70,15,8,15,0.76
2013-11-1,62.0,49.4,40.0,48.0,43.1,40.0,100,80,55,29.03,28.76,11,2,11,0.08
2013-11-2,45.0,43.0,40.0,45.0,42.7,40.0,100,99,97,29.18,29.00,7,2,10,0.00
2013-11-5,60.0,57.5,53.0,60.0,57.5,53.0,100,100,100,29.18,28.91,16,10,17,9.18
2013-11-6,59.0,41.9,32.0,59.0,40.7,32.0,100,96,79,29.38,28.94,11,4,17,0.64
2013-11-7,58.0,35.7,30.0,45.0,34.1,30.0,100,94,61,29.41,29.38,17,1,17,0.00
2013-11-8,62.0,44.5,34.0,47.0,38.9,33.0,97,82,55,29.38,29.03,15,6,19,0.00
2013-11-9,52.0,47.3,44.0,44.0,41.7,38.0,97,81,73,29.15,29.06,11,5,13,0.00
2013-11-10,50.0,48.7,48.0,42.0,40.7,40.0,73,73,73,29.32,29.32,0,0,0,0.00
2013-11-11,67.0,48.6,29.0,52.0,41.0,25.0,100,76,49,29.62,29.21,15,6,16,0.00
2013-11-12,29.0,22.4,18.0,25.0,20.9,17.0,100,94,85,29.85,29.62,15,5,15,0.00
2013-11-13,36.0,23.5,20.0,30.0,21.6,19.0,97,94,79,29.71,29.26,11,4,11,0.00
2013-11-17,68.0,62.9,42.0,68.0,58.5,38.0,100,87,55,29.12,28.47,23,12,23,0.00
2013-11-18,52.0,39.6,34.0,44.0,37.1,34.0,100,91,73,29.35,29.12,5,1,8,0.00
2013-11-19,48.0,37.6,36.0,40.0,35.2,34.0,91,90,73,29.29,29.29,6,1,10,0.00
2013-11-20,49.0,43.9,38.0,42.0,40.0,37.0,100,86,73,29.06,28.97,11,2,12,0.28
2013-11-21,52.0,45.1,31.0,49.0,42.8,31.0,100,92,73,29.38,29.03,15,4,15,0.44
2013-11-22,33.0,29.0,26.0,32.0,28.7,26.0,100,99,97,29.65,29.41,0,0,0,0.04
2013-11-23,26.0,24.4,19.0,26.0,23.5,18.0,100,96,91,29.80,29.62,3,0,6,0.00
2013-11-24,27.0,23.0,19.0,23.0,20.5,18.0,97,91,85,29.74,29.41,8,4,8,0.00
2013-11-25,38.0,30.4,26.0,30.0,26.4,24.0,100,85,73,29.29,29.23,6,1,9,0.00
2013-11-26,38.0,28.1,23.0,35.0,26.7,21.0,100,95,73,29.41,29.18,10,4,17,0.00
2013-11-27,27.0,16.5,13.0,23.0,16.2,13.0,100,99,85,29.47,29.26,11,3,12,0.00
2013-11-28,37.0,28.0,25.0,31.0,24.7,23.0,91,87,79,29.53,29.21,11,3,13,0.00
2013-11-29,41.0,27.4,21.0,37.0,25.3,21.0,100,92,79,29.53,29.32,5,2,8,0.00
2013-12-2,49.0,42.2,34.0,49.0,42.2,34.0,100,100,100,28.94,28.67,10,5,13,0.00
2013-12-3,59.0,46.9,39.0,54.0,45.1,39.0,100,94,61,28.70,28.61,10,4,13,0.00
2013-12-4,52.0,42.0,24.0,52.0,42.0,24.0,100,100,100,29.03,28.59,11,6,15,0.00
2013-12-5,25.0,21.7,19.0,25.0,20.6,18.0,100,96,91,29.26,29.06,13,7,13,0.00
2013-12-7,11.0,7.4,5.0,11.0,3.7,-99.9,100,96,100,29.71,29.47,9,5,11,0.00
2013-12-8,25.0,22.3,18.0,25.0,22.1,18.0,100,100,97,29.23,29.03,8,3,9,0.04
2013-12-9,18.0,15.1,14.0,18.0,15.1,14.0,100,100,100,29.32,29.18,0,0,4,0.00
2013-12-14,26.0,22.3,20.0,26.0,15.7,-99.9,100,93,100,29.23,29.23,0,0,0,0.04
2013-12-15,44.0,31.7,18.0,40.0,29.7,18.0,100,92,85,29.23,29.03,6,2,6,0.04
2013-12-16,49.0,37.4,31.0,41.0,35.0,30.0,100,92,73,29.18,29.03,6,2,7,0.04
2013-12-17,40.0,30.4,25.0,36.0,28.5,24.0,100,93,79,29.29,29.18,5,0,5,0.00
2013-12-18,58.0,39.2,28.0,45.0,34.2,24.0,100,84,61,29.26,28.88,17,8,19,0.00
2013-12-19,58.0,53.0,48.0,50.0,44.0,40.0,79,71,61,28.88,28.73,15,9,17,0.00